Weather History for KSLK - May, 2014

Change the Weather History Date:

Saturday, May 17, 2014

  Actual Average Record
Temperature  
Mean Temperature 44 °F 51 °F  
Max Temperature 58 °F 64 °F 85 °F (1962)
Min Temperature 29 °F 37 °F 22 °F (1957)
Degree Days  
Heating Degree Days 18 14  
Month to date heating degree days 295  
Since 1 July heating degree days 9066  
Cooling Degree Days 0 0  
Month to date cooling degree days 1 0  
Year to date cooling degree days 1 0  
Moisture  
Dew Point 37 °F    
Average Humidity 66    
Maximum Humidity 96    
Minimum Humidity 36    
Precipitation  
Precipitation 0.35 in 0.12 in 0.60 in (1970)
Month to date precipitation 3.11 1.71  
Year to date precipitation 11.42 10.62  
Sea Level Pressure  
Sea Level Pressure 29.93 in    
Wind  
Wind Speed 8 mph (SW)    
Max Wind Speed 18 mph    
Max Gust Speed 25 mph    
Visibility 9 miles    
Events Rain    
T = Trace of Precipitation, MM = Missing Value Source: NWS Daily Summary

Daily Weather History Graph

Daily Weather History Graph

Search for Another Location

Airport or City:

Trip Planner

Search our weather history database for the weather conditions in past years. The results will help you decide how hot, cold, wet, or windy it might be!

Date:

Astronomy

May. 17, 2014 Rise Set
Actual Time 5:27 AM EDT 8:19 PM EDT
Civil Twilight 4:53 AM EDT 8:53 PM EDT
Nautical Twilight 4:10 AM EDT 9:36 PM EDT
Astronomical Twilight 3:20 AM EDT 10:27 PM EDT
Moon 11:16 PM EDT (5/17) 8:07 AM EDT (5/17)
Length of Visible Light 16h 00m
Length of Day
14h 52m
Waning Gibbous, 89% of the Moon is Illuminated
May 17
Waning Gibbous
May 21
Last Quarter
May 28
New
Jun 5
First Quarter
Jun 13
Full

Hourly Weather History & Observations

Time (EDT) Temp. Windchill Dew Point Humidity Pressure Visibility Wind Dir Wind Speed Gust Speed Precip Events Conditions
12:17 AM 44.1 °F 39.5 °F 43.0 °F 96% 29.89 in 3.0 mi SW 8.1 mph - 0.05 in Rain Rain
12:25 AM 43.0 °F 38.2 °F 42.1 °F 97% 29.88 in 2.0 mi SW 8.1 mph - 0.09 in Rain Heavy Rain
12:39 AM 43.0 °F 38.8 °F 42.1 °F 97% 29.89 in 4.0 mi SW 6.9 mph - 0.13 in Rain Rain
12:51 AM 43.0 °F 37.7 °F 42.1 °F 97% 29.90 in 6.0 mi SSW 9.2 mph - 0.14 in Rain Light Rain
1:47 AM 42.8 °F 37.0 °F 42.8 °F 100% 29.87 in 2.5 mi SW 10.4 mph - 0.09 in Rain Heavy Rain
1:51 AM 43.0 °F 37.7 °F 41.0 °F 93% 29.87 in 2.5 mi SW 9.2 mph - 0.11 in Rain Heavy Rain
2:51 AM 42.1 °F 36.6 °F 41.0 °F 96% 29.83 in 4.0 mi SW 9.2 mph - 0.24 in Rain Light Rain
3:44 AM 43.0 °F 38.8 °F 41.0 °F 93% 29.84 in 10.0 mi WSW 6.9 mph - 0.00 in   Overcast
3:51 AM 43.0 °F 40.3 °F 41.0 °F 93% 29.84 in 10.0 mi WSW 4.6 mph - 0.00 in   Overcast
4:11 AM 42.1 °F 39.2 °F 41.0 °F 96% 29.85 in 10.0 mi SW 4.6 mph - N/A   Overcast
4:39 AM 42.1 °F 40.2 °F 41.0 °F 96% 29.84 in 10.0 mi SW 3.5 mph - N/A   Overcast
5:33 AM 42.1 °F 37.7 °F 39.9 °F 92% 29.87 in 10.0 mi SSW 6.9 mph - N/A   Overcast
5:41 AM 42.1 °F 37.7 °F 39.9 °F 92% 29.87 in 10.0 mi SSW 6.9 mph - N/A   Overcast
5:51 AM 42.1 °F 37.1 °F 39.9 °F 92% 29.90 in 10.0 mi SSW 8.1 mph - N/A   Overcast
6:32 AM 42.1 °F 36.6 °F 39.0 °F 89% 29.89 in 10.0 mi WSW 9.2 mph 18.4 mph N/A   Overcast
6:51 AM 41.0 °F 34.7 °F 39.0 °F 93% 29.91 in 10.0 mi SW 10.4 mph - N/A   Overcast
7:40 AM 41.0 °F 35.8 °F 39.0 °F 93% 29.88 in 10.0 mi SW 8.1 mph - N/A   Overcast
7:51 AM 42.1 °F 37.1 °F 39.0 °F 89% 29.91 in 10.0 mi SW 8.1 mph - N/A   Overcast
8:05 AM 42.1 °F 37.7 °F 39.0 °F 89% 29.89 in 10.0 mi SW 6.9 mph - N/A   Overcast
8:15 AM 42.1 °F 38.4 °F 39.0 °F 89% 29.90 in 10.0 mi WSW 5.8 mph - N/A   Overcast
8:51 AM 42.1 °F 36.6 °F 37.9 °F 85% 29.93 in 10.0 mi WSW 9.2 mph - N/A   Overcast
9:03 AM 43.0 °F 37.7 °F 37.9 °F 82% 29.91 in 10.0 mi SW 9.2 mph - N/A   Overcast
9:28 AM 44.1 °F 39.5 °F 37.9 °F 79% 29.91 in 10.0 mi SW 8.1 mph - N/A   Overcast
9:51 AM 45.0 °F 41.2 °F 37.9 °F 76% 29.94 in 10.0 mi Variable 6.9 mph 18.4 mph N/A   Overcast
10:51 AM 48.9 °F - 36.0 °F 61% 29.94 in 10.0 mi WSW 13.8 mph 20.7 mph N/A   Scattered Clouds
11:51 AM 52.0 °F - 36.0 °F 54% 29.95 in 10.0 mi West 10.4 mph - N/A   Partly Cloudy
12:51 PM 54.0 °F - 35.1 °F 49% 29.96 in 10.0 mi SSW 9.2 mph 17.3 mph N/A   Mostly Cloudy
1:51 PM 55.0 °F - 32.0 °F 42% 29.98 in 10.0 mi WSW 10.4 mph - N/A   Scattered Clouds
2:51 PM 55.9 °F - 30.9 °F 39% 29.99 in 10.0 mi SW 11.5 mph - N/A   Clear
3:51 PM 57.9 °F - 30.9 °F 36% 30.00 in 10.0 mi SW 12.7 mph 23.0 mph N/A   Mostly Cloudy
4:51 PM 55.0 °F - 30.9 °F 40% 30.01 in 10.0 mi West 9.2 mph - N/A   Clear
6:51 PM 51.1 °F - 28.9 °F 43% 30.06 in 10.0 mi WSW 9.2 mph 17.3 mph N/A   Clear
7:51 PM 46.9 °F - 30.9 °F 54% 30.10 in 10.0 mi WSW 9.2 mph 18.4 mph N/A   Clear
9:51 PM 39.9 °F 36.7 °F 33.1 °F 77% 30.13 in 10.0 mi WSW 4.6 mph - N/A   Clear
10:51 PM 36.0 °F - 30.0 °F 79% 30.14 in 10.0 mi Calm Calm - N/A   Clear
11:51 PM 32.0 °F - 30.0 °F 92% 30.15 in 10.0 mi Calm Calm - N/A   Clear